Miscellaneous Local Product
Issued by NWS North Platte, NE

Home | Current Version | Previous Version | Text Only | Print | Product List | Glossary On
Versions: 1 2 3 4 5 6 7 8 9 10 11 12 13 14 15 16 17 18 19 20 21 22 23 24 25 26 27 28 29 30 31 32 33 34 35 36 37 38 39 40 41 42 43 44 45 46 47 48 49 50
000
AXUS43 KLBF 280210
MISLBF


WESTERN AND NORTH CENTRAL NEBRASKA HOURLY WEATHER ROUNDUP
NATIONAL WEATHER SERVICE NORTH PLATTE NE
900 PM CDT MON JUL 27 2015

***STATIONS NOT REPORTING VARIABLES SUCH AS SKY/WEATHER OR
PRESSURE ARE PROVIDED BY THE NEBRASKA DEPARTMENT OF
ROADS...RAWS...AND APRS NETWORKS...AND ARE NOT UNDER
NATIONAL WEATHER SERVICE QUALITY CONTROL***

...OBSERVATIONS IN AND NEAR THE EASTERN PANHANDLE OF NEBRASKA...

CITY           SKY/WX    TMP DP  RH WIND       PRES   REMARKS
PINE RIDGE     TSTM      69  60  73 NW9G23    29.70R
CHADRON        CLOUDY    73  58  59 SW7       29.71R
ALLIANCE       LGT RAIN  79  55  43 SE3       29.75R
SIDNEY         CLEAR     83  58  42 S9        29.76R
BIG SPRINGS      N/A     86  70  59 SE13        N/A  HX  91
$$

...OBSERVATIONS IN NORTH CENTRAL NEBRASKA...

CITY           SKY/WX    TMP DP  RH WIND       PRES   REMARKS
VALENTINE      PTCLDY    87  70  56 S17       29.70R HX  92
THEDFORD       PTCLDY    85  73  67 SE13      29.75R HX  91
AINSWORTH      PTCLDY    84  72  65 S15       29.73R
O`NEILL        PTCLDY    84  72  67 SE13G21   29.74F
ORD            CLEAR     84  72  67 SE10G24   29.74F
BROKEN BOW     MOCLDY    85  73  67 SE15G28   29.75S HX  91
SPRINGVIEW       N/A     85  74  68 SE7         N/A  HX  92
CHAMBERS         N/A     80  71  75 MISG        N/A
EWING            N/A     80  73  80 SE3         N/A
$$

...OBSERVATIONS IN SOUTHWEST NEBRASKA AND FAR NORTHEAST COLORADO...

CITY           SKY/WX    TMP DP  RH WIND       PRES   REMARKS
WRAY           FAIR      88  65  47 SE15      29.74S HX  90
HOLYOKE        FAIR      86  66  51 SE12      29.74R
IMPERIAL       CLEAR     87  67  51 S14       29.72S HX  90
OGALLALA       CLEAR     86  69  56 SE12      29.72R HX  90
NORTH PLATTE   CLEAR     83  71  67 SE9       29.71S
MCCOOK         CLEAR     89  68  49 S18       29.72S HX  93
LEXINGTON      PTCLDY    86  71  61 SE16      29.75S HX  91
PAXTON           N/A     84  73  69 SE9         N/A  HX  90
BRADY            N/A     83  73  71 CALM        N/A
CALLAWAY         N/A     81  74  80 SE14        N/A
$$

...NORTH PLATTE AREA...

CITY           SKY/WX    TMP DP  RH WIND       PRES   REMARKS
AIRPORT        CLEAR     83  71  67 SE9       29.71S
DOWNTOWN         N/A     87  73  62 S5G12       N/A  HX  94
HILLCREST        N/A     84  72  67 SE10        N/A
$$

...SOME WEATHER OBSERVATIONS FROM AROUND THE REGION...

CITY           SKY/WX    TMP DP  RH WIND       PRES   REMARKS
DENVER         PTCLDY    89  45  21 S7        29.85R
LARAMIE        PTCLDY    76  25  15 W20G28    30.02R
CHEYENNE       PTCLDY    83  38  20 W21G28    29.91R
SCOTTSBLUFF    MOCLDY    73  62  68 SE6       29.74F
RAPID CITY     CLOUDY    67  63  87 SE8       29.69R
PIERRE         PTCLDY    86  68  54 SE16      29.64R
WINNER         FAIR      87  70  56 SE13      29.69R HX  92
SIOUX FALLS    PTCLDY    81  73  76 S13       29.78F
OMAHA          PTCLDY    78  70  76 SE16      29.84S
GRAND ISLAND   PTCLDY    82  74  76 SE10      29.78F
KANSAS CITY    PTCLDY    82  74  76 SE8       29.88S
WICHITA        PTCLDY    87  66  49 S12       29.84R
HAYS           CLEAR     88  66  48 SE17      29.78S HX  90
LIBERAL        PTCLDY    90  63  40 S17G23    29.83R HX  90
GOODLAND       PTCLDY    83  69  62 SE13      29.76F
$$



USA.gov is the U.S. government's official web portal to all federal, state and local government web resources and services.